Humber Bridge — 3EHZ5 — position and weather

sailwx.info

Track history (hours):
 
Tides and Currents Weather Stations Pressure Air Temp Water Temp Dewpoint Dewpoint Depression Visibility Wind Speed Wind Dir Waves Ship Positions

Humber Bridge

Last reported at 2017-Dec-11 16:58 UTC. Time now 2017-Dec-12 23:52 UTC.
Position N 33°52' W 118°55'.

Length 336 m; draft 11.6 m.

Type: Ship (hazmat cat A). MMSI: 372038000.

Date/timePositionNaut miles runAvg speedWind from/ knotsBaromVisibWave heightAir tempDewpointWater temp
2017-Dec-11 16:58N 33°52' W 118°55'510.8
2017-Dec-11 16:29N 33°55' W 119°01'511.1
2017-Dec-11 16:00N 33°58' W 119°06'612.6
2017-Dec-11 15:30N 34°01' W 119°13'612.4
2017-Dec-11 15:00N 34°03' W 119°20'612.6
2017-Dec-11 14:30N 34°05' W 119°27'712.4
2017-Dec-11 13:58N 34°06' W 119°35'612.2
2017-Dec-11 13:30N 34°08' W 119°41'612.2
2017-Dec-11 13:00N 34°10' W 119°48'712.6
2017-Dec-11 12:28N 34°11' W 119°56'612.9
2017-Dec-11 11:59N 34°13' W 120°03'712.6
2017-Dec-11 11:26N 34°15' W 120°12'612.7
2017-Dec-11 10:58N 34°17' W 120°19'612.5
2017-Dec-11 10:30N 34°18' W 120°25'510.1
2017-Dec-11 09:59N 34°19' W 120°31'4 8.2
2017-Dec-11 09:30N 34°20' W 120°36'4 8.4
2017-Dec-11 08:59N 34°22' W 120°41'4 8.4
2017-Dec-11 08:30N 34°23' W 120°46'4 8.6
2017-Dec-11 08:00N 34°24' W 120°51'510.7
2017-Dec-11 07:30N 34°27' W 120°56'612.9
2017-Dec-11 07:00N 34°31' W 121°03'612.7
2017-Dec-11 06:30N 34°34' W 121°09'612.3
2017-Dec-11 06:00N 34°38' W 121°15'1 2.4
2017-Dec-11 05:30N 34°39' W 121°16'0 0.5
2017-Dec-11 04:58N 34°39' W 121°16'0 0.3
2017-Dec-11 04:30N 34°39' W 121°16'1 1.2
2017-Dec-11 04:00N 34°40' W 121°16'510.5
2017-Dec-11 03:30N 34°43' W 121°21'918.1
2017-Dec-11 03:00N 34°49' W 121°30'917.8
2017-Dec-11 02:30N 34°54' W 121°38'917.6
2017-Dec-11 02:00N 34°60' W 121°47'5417.6
2017-Dec-10 22:55N 35°33' W 122°39'717.5
2017-Dec-10 22:30N 35°37' W 122°46'917.7
2017-Dec-10 22:00N 35°43' W 122°55'918.0
2017-Dec-10 21:30N 35°48' W 123°04'918.0
2017-Dec-10 21:00N 35°54' W 123°12'1017.8
2017-Dec-10 20:28N 35°59' W 123°22'817.9
2017-Dec-10 20:00N 36°04' W 123°30'917.9
2017-Dec-10 19:30N 36°10' W 123°39'917.9
2017-Dec-10 19:00N 36°15' W 123°48'918.1
2017-Dec-10 18:30N 36°21' W 123°57'918.0
2017-Dec-10 18:00N 36°26' W 124°06'917.8
2017-Dec-10 17:29N 36°32' W 124°15'917.8
2017-Dec-10 17:00N 36°37' W 124°24'917.7
2017-Dec-10 16:29N 36°42' W 124°33'918.1
2017-Dec-10 16:00N 36°47' W 124°41'917.9
2017-Dec-10 15:30N 36°53' W 124°50'918.2
2017-Dec-10 15:00N 36°58' W 124°59'918.2
2017-Dec-10 14:30N 37°04' W 125°09'918.2
2017-Dec-10 14:00N 37°09' W 125°18'918.3
2017-Dec-10 13:30N 37°14' W 125°27'918.3
2017-Dec-10 13:00N 37°20' W 125°36'918.5
2017-Dec-10 12:30N 37°25' W 125°46'918.7
2017-Dec-10 12:00N 37°31' W 125°55'918.3
2017-Dec-10 11:30N 37°36' W 126°05'918.2
2017-Dec-10 11:00N 37°41' W 126°14'918.1
2017-Dec-10 10:30N 37°46' W 126°23'917.9
2017-Dec-10 10:00N 37°52' W 126°33'917.7
2017-Dec-10 09:30N 37°57' W 126°42'1118.2
2017-Dec-10 08:55N 38°03' W 126°53'  
2017-Dec-01 22:06N 41°40' E 141°42'220.0
2017-Dec-01 22:00N 41°40' E 141°39'1021.1
2017-Dec-01 21:30N 41°39' E 141°25'1020.5
2017-Dec-01 21:01N 41°38' E 141°12'1122.0
2017-Dec-01 20:31N 41°37' E 140°57'1121.3
2017-Dec-01 20:00N 41°33' E 140°43'1021.0
2017-Dec-01 19:31N 41°28' E 140°32'1223.1
2017-Dec-01 19:00N 41°21' E 140°19'1121.0
2017-Dec-01 18:30N 41°14' E 140°08'  
Track history (hours):
 
Tides and Currents Weather Stations Pressure Air Temp Water Temp Dewpoint Dewpoint Depression Visibility Wind Speed Wind Dir Waves Ship Positions

Humber Bridge

Last reported at 2017-Dec-11 16:58 UTC. Time now 2017-Dec-12 23:52 UTC.
Position N 33°52' W 118°55'.

Length 336 m; draft 11.6 m.

Type: Ship (hazmat cat A). MMSI: 372038000.

Date/timePositionNaut miles runAvg speedWind from/ knotsBaromVisibWave heightAir tempDewpointWater temp
2017-Dec-11 16:58N 33°52' W 118°55'510.8
2017-Dec-11 16:29N 33°55' W 119°01'511.1
2017-Dec-11 16:00N 33°58' W 119°06'612.6
2017-Dec-11 15:30N 34°01' W 119°13'612.4
2017-Dec-11 15:00N 34°03' W 119°20'612.6
2017-Dec-11 14:30N 34°05' W 119°27'712.4
2017-Dec-11 13:58N 34°06' W 119°35'612.2
2017-Dec-11 13:30N 34°08' W 119°41'612.2
2017-Dec-11 13:00N 34°10' W 119°48'712.6
2017-Dec-11 12:28N 34°11' W 119°56'612.9
2017-Dec-11 11:59N 34°13' W 120°03'712.6
2017-Dec-11 11:26N 34°15' W 120°12'612.7
2017-Dec-11 10:58N 34°17' W 120°19'612.5
2017-Dec-11 10:30N 34°18' W 120°25'510.1
2017-Dec-11 09:59N 34°19' W 120°31'4 8.2
2017-Dec-11 09:30N 34°20' W 120°36'4 8.4
2017-Dec-11 08:59N 34°22' W 120°41'4 8.4
2017-Dec-11 08:30N 34°23' W 120°46'4 8.6
2017-Dec-11 08:00N 34°24' W 120°51'510.7
2017-Dec-11 07:30N 34°27' W 120°56'612.9
2017-Dec-11 07:00N 34°31' W 121°03'612.7
2017-Dec-11 06:30N 34°34' W 121°09'612.3
2017-Dec-11 06:00N 34°38' W 121°15'1 2.4
2017-Dec-11 05:30N 34°39' W 121°16'0 0.5
2017-Dec-11 04:58N 34°39' W 121°16'0 0.3
2017-Dec-11 04:30N 34°39' W 121°16'1 1.2
2017-Dec-11 04:00N 34°40' W 121°16'510.5
2017-Dec-11 03:30N 34°43' W 121°21'918.1
2017-Dec-11 03:00N 34°49' W 121°30'917.8
2017-Dec-11 02:30N 34°54' W 121°38'917.6
2017-Dec-11 02:00N 34°60' W 121°47'5417.6
2017-Dec-10 22:55N 35°33' W 122°39'717.5
2017-Dec-10 22:30N 35°37' W 122°46'917.7
2017-Dec-10 22:00N 35°43' W 122°55'918.0
2017-Dec-10 21:30N 35°48' W 123°04'918.0
2017-Dec-10 21:00N 35°54' W 123°12'1017.8
2017-Dec-10 20:28N 35°59' W 123°22'817.9
2017-Dec-10 20:00N 36°04' W 123°30'917.9
2017-Dec-10 19:30N 36°10' W 123°39'917.9
2017-Dec-10 19:00N 36°15' W 123°48'918.1
2017-Dec-10 18:30N 36°21' W 123°57'918.0
2017-Dec-10 18:00N 36°26' W 124°06'917.8
2017-Dec-10 17:29N 36°32' W 124°15'917.8
2017-Dec-10 17:00N 36°37' W 124°24'917.7
2017-Dec-10 16:29N 36°42' W 124°33'918.1
2017-Dec-10 16:00N 36°47' W 124°41'917.9
2017-Dec-10 15:30N 36°53' W 124°50'918.2
2017-Dec-10 15:00N 36°58' W 124°59'918.2
2017-Dec-10 14:30N 37°04' W 125°09'918.2
2017-Dec-10 14:00N 37°09' W 125°18'918.3
2017-Dec-10 13:30N 37°14' W 125°27'918.3
2017-Dec-10 13:00N 37°20' W 125°36'918.5
2017-Dec-10 12:30N 37°25' W 125°46'918.7
2017-Dec-10 12:00N 37°31' W 125°55'918.3
2017-Dec-10 11:30N 37°36' W 126°05'918.2
2017-Dec-10 11:00N 37°41' W 126°14'918.1
2017-Dec-10 10:30N 37°46' W 126°23'917.9
2017-Dec-10 10:00N 37°52' W 126°33'917.7
2017-Dec-10 09:30N 37°57' W 126°42'1118.2
2017-Dec-10 08:55N 38°03' W 126°53'  
2017-Dec-01 22:06N 41°40' E 141°42'220.0
2017-Dec-01 22:00N 41°40' E 141°39'1021.1
2017-Dec-01 21:30N 41°39' E 141°25'1020.5
2017-Dec-01 21:01N 41°38' E 141°12'1122.0
2017-Dec-01 20:31N 41°37' E 140°57'1121.3
2017-Dec-01 20:00N 41°33' E 140°43'1021.0
2017-Dec-01 19:31N 41°28' E 140°32'1223.1
2017-Dec-01 19:00N 41°21' E 140°19'1121.0
2017-Dec-01 18:30N 41°14' E 140°08'  

Dump ship's entire track history